sat.trackr.live / text

‹ back to catalog

STARLINK-35334

NORAD 66450 · 2025-259AE

PAYLOAD ACTIVE UNKNOWN

§ Identity

Operator
Country
US
Launch date
2025-11-11
Launch site
AFETR
Launch vehicle
Mass (kg)
RCS (m²)

Purposes: comms

External: N2YO · Heavens-Above · Gunter

§ Orbital elements

Epoch: 2026-05-25T03:49:50.979648Z

Period
94.27 min
Inclination
43.0000°
Eccentricity
0.0001550
Mean motion
15.27601764 rev/d
Perigee alt
481.9 km
Apogee alt
484.0 km
Semi-major
6,861.1 km
B*
5.3668e-4
RAAN
202.7174°
Arg perigee
294.2328°
Mean anomaly
65.8362°
Rev number
3,118

§ Raw data

STARLINK-353341 66450U 25259AE  26145.15961782  .00014545  00000+0  53668-3 0  99902 66450  43.0000 202.7174 0001550 294.2328  65.8362 15.27601764 31186

JSON: /api/v1/satellites/66450 · /tle

For live sub-satellite position, see the globe view (requires WebGL).

§ Visibility from observer

Set your observer location to see the next 7 days of passes ≥ 10°. The values pass through the URL so the page stays shareable.

No JS? Fill the form by hand. The geolocation button needs JavaScript.